Location: Newark
(40.3667°N, 3.7500°W)
Time: 22:27:29
(UTC+00:00)

OTV 5 (USA 277) - Pass Details

Date: 31 October 2019
Orbit: 310 x 324 km, 54.5° (Epoch: 17 October)

Event Time Altitude Azimuth Distance (km) Brightness Sun altitude
Rises 17:43:10 0° 230° (SW) 2,044 ? -6.3°
Reaches altitude 10° 17:45:07 10° 232° (SW) 1,220 ? -6.6°
Maximum altitude 17:47:50 75° 319° (NW) 335 ? -7.1°
Drops below altitude 10° 17:50:33 10° 45° (NE) 1,235 ? -7.6°
Enters shadow 17:50:56 - 46° (NE) 1,393 ? -7.7°
